Flag for Hungary Weather past 2 weeks in Budapest, Hungary

Now
63 °F

Clear.


Feels Like: 63 °F
Forecast: 56 / 82 °F
Wind: 2 mph from North

Location: Ferenc Liszt International Airport

Current Time: Jun 30, 2015 at 11:36:34 PM

Latest Report: Jun 30, 2015 at 11:00 PM


Visibility: 10 mi

Pressure: 30.15 "Hg

Humidity: 68%

Dew point: 52 °F

Location of BudapestLocation

Historic Weather in Budapest — Graph

°F

Budapest temperature yesterday

Maximum temperature yesterday: 79 °F (at 3:30 PM)
Minimum temperature yesterday: 61 °F (at 5:00 AM)
Average temperature yesterday: 70 °F

Past Weeks' High & Low Weather Summary

 TemperatureHumidityPressure
High81 °F (Jun 30, 2:30 PM)100% (Jun 16, 3:00 AM)30.18 "Hg (Jun 16, 3:00 AM)
Low45 °F (Jun 22, 4:00 AM)28% (Jun 30, 4:00 PM)29.83 "Hg (Jun 15, 10:00 PM)
Average65 °F64%30.01 "Hg
* Reported Jun 15 10:00 PM — Jun 30 10:30 PM, Budapest, Weather by CustomWeather, © 2015

Note: Actual official high and low records may vary slightly from our data, if they occured in-between our weather recording intervals... More about our weather records

Advertising

Budapest weather history for previous 24 hours

 ConditionsComfort  
Time TempWeatherWind HumidityBarometerVisibility
10:30 PM
Tue, Jun 30
64 °FClear.2 mph68%30.12 "Hg10 mi
10:00 PM66 °FClear.3 mph60%30.12 "Hg10 mi
9:30 PM68 °FSunny.5 mph56%30.12 "Hg10 mi
9:00 PM72 °FSunny.2 mph47%30.12 "Hg10 mi
8:30 PM75 °FSunny.5 mph41%30.09 "Hg10 mi
8:00 PM79 °FSunny.3 mph34%30.09 "Hg10 mi
7:00 PM81 °FSunny.9 mph30%30.09 "Hg10 mi
6:30 PM81 °FPassing clouds.7 mph28%30.09 "HgN/A
6:00 PM79 °FPassing clouds.8 mph32%30.09 "HgN/A
5:00 PM81 °FPassing clouds.8 mph30%30.09 "HgN/A
4:30 PM81 °FPassing clouds.9 mph30%30.09 "HgN/A
4:00 PM81 °FPassing clouds.12 mph28%30.09 "HgN/A
3:00 PM79 °FPassing clouds.12 mph30%30.09 "HgN/A
2:30 PM81 °FPassing clouds.13 mph32%30.12 "HgN/A
2:00 PM79 °FPassing clouds.9 mph30%30.12 "HgN/A
1:30 PM79 °FPassing clouds.10 mph30%30.12 "HgN/A
1:00 PM75 °FPassing clouds.7 mph39%30.12 "HgN/A
12:30 PM79 °FSunny.6 mph37%30.12 "Hg10 mi
12:00 PM77 °FScattered clouds.8 mph42%30.12 "HgN/A
11:30 AM77 °FScattered clouds.5 mph39%30.15 "HgN/A
11:00 AM75 °FScattered clouds.5 mph41%30.15 "HgN/A
10:30 AM73 °FScattered clouds.6 mph47%30.15 "HgN/A
10:00 AM73 °FScattered clouds.2 mph50%30.15 "HgN/A
9:30 AM70 °FScattered clouds.6 mph57%30.15 "HgN/A
9:00 AM70 °FScattered clouds.6 mph57%30.15 "HgN/A
8:30 AM70 °FSunny.3 mph60%30.15 "Hg10 mi
8:00 AM68 °FSunny.3 mph69%30.15 "Hg10 mi
7:30 AM64 °FSunny.6 mph78%30.15 "Hg10 mi
7:00 AM63 °FSunny.7 mph83%30.15 "Hg10 mi
6:30 AM61 °FSunny.5 mph88%30.12 "Hg10 mi
6:00 AM59 °FSunny.5 mph94%30.12 "Hg10 mi
5:30 AM55 °FClear.5 mph100%30.12 "Hg10 mi
5:00 AM55 °FClear.6 mph100%30.12 "Hg10 mi
4:30 AM55 °FClear.5 mph100%30.12 "Hg10 mi
4:00 AM55 °FPassing clouds.1 mph94%30.12 "HgN/A
3:30 AM55 °FPassing clouds.2 mph94%30.12 "HgN/A
3:00 AM57 °FClear.6 mph94%30.12 "Hg10 mi
2:30 AM59 °FClear.3 mph88%30.12 "Hg10 mi
2:00 AM59 °FPassing clouds.5 mph88%30.15 "HgN/A
1:30 AM59 °FPassing clouds.5 mph88%30.15 "HgN/A
1:00 AM61 °FClear.2 mph88%30.15 "Hg10 mi
12:30 AM61 °FClear.2 mph88%30.15 "Hg10 mi
12:00 AM63 °FPassing clouds.7 mph83%30.12 "HgN/A
11:30 PM
Mon, Jun 29
63 °FPassing clouds.6 mph73%30.12 "HgN/A
11:00 PM64 °FClear.8 mph64%30.12 "Hg10 mi
Weather by CustomWeather, © 2015

See weather overviewHow to use our weather pages